TimeCDT,TemperatureF,Dew PointF,Humidity,Sea Level PressureIn,VisibilityMPH,Wind Direction,Wind SpeedMPH,Gust SpeedMPH,PrecipitationIn,Events,Conditions,WindDirDegrees,DateUTC
12:15 AM,33.4,32.4,96,29.80,2.5,NW,10.4,-,N/A,Snow,Light Snow,310,2013-04-11 05:15:00
12:35 AM,33.3,32.0,95,29.79,4.0,NW,9.2,-,N/A,,Overcast,310,2013-04-11 05:35:00
12:55 AM,33.3,32.0,95,29.79,5.0,WNW,10.4,-,N/A,,Overcast,300,2013-04-11 05:55:00
1:15 AM,33.3,32.0,95,29.79,5.0,WNW,11.5,17.3,N/A,,Overcast,300,2013-04-11 06:15:00
1:35 AM,33.1,32.0,96,29.78,5.0,NW,10.4,-,N/A,Snow,Light Snow,310,2013-04-11 06:35:00
1:55 AM,33.1,32.0,96,29.78,7.0,NW,10.4,-,N/A,,Overcast,310,2013-04-11 06:55:00
2:15 AM,32.9,31.8,96,29.76,10.0,WNW,8.1,-,N/A,,Overcast,300,2013-04-11 07:15:00
2:35 AM,32.9,31.6,95,29.75,7.0,NW,9.2,-,N/A,,Overcast,310,2013-04-11 07:35:00
2:55 AM,32.9,31.5,94,29.75,5.0,WNW,11.5,-,N/A,Snow,Light Snow,300,2013-04-11 07:55:00
3:15 AM,32.5,30.9,94,29.74,4.0,NW,10.4,-,N/A,Snow,Light Snow,310,2013-04-11 08:15:00
3:35 AM,32.4,30.9,94,29.73,7.0,NW,10.4,-,N/A,,Overcast,310,2013-04-11 08:35:00
3:55 AM,32.4,30.9,94,29.72,10.0,NW,10.4,-,N/A,,Overcast,310,2013-04-11 08:55:00
4:15 AM,32.4,30.6,93,29.71,10.0,NW,8.1,-,N/A,,Overcast,310,2013-04-11 09:15:00
4:35 AM,32.2,30.6,94,29.69,10.0,NW,10.4,-,N/A,,Overcast,310,2013-04-11 09:35:00
4:55 AM,32.2,30.2,92,29.68,10.0,NW,10.4,-,N/A,,Overcast,310,2013-04-11 09:55:00
5:15 AM,32.0,30.2,93,29.68,10.0,WNW,11.5,-,N/A,,Overcast,300,2013-04-11 10:15:00
5:35 AM,32.0,29.8,92,29.68,10.0,WNW,9.2,-,N/A,,Overcast,300,2013-04-11 10:35:00
5:55 AM,32.0,29.8,92,29.69,10.0,WNW,6.9,-,N/A,,Overcast,290,2013-04-11 10:55:00
6:15 AM,32.0,29.7,91,29.69,10.0,West,8.1,-,N/A,,Overcast,280,2013-04-11 11:15:00
6:35 AM,32.0,29.5,90,29.68,10.0,WNW,9.2,-,N/A,,Overcast,300,2013-04-11 11:35:00
6:55 AM,32.0,29.7,91,29.69,10.0,West,9.2,-,N/A,,Overcast,270,2013-04-11 11:55:00
7:15 AM,31.6,29.1,90,29.69,10.0,West,8.1,-,N/A,,Overcast,270,2013-04-11 12:15:00
7:35 AM,31.8,29.3,90,29.69,10.0,West,9.2,-,N/A,,Overcast,270,2013-04-11 12:35:00
7:55 AM,31.6,29.1,90,29.69,10.0,West,10.4,-,N/A,,Overcast,280,2013-04-11 12:55:00
8:15 AM,31.6,28.6,88,29.69,10.0,West,9.2,-,N/A,,Overcast,280,2013-04-11 13:15:00
8:35 AM,31.8,28.4,87,29.69,10.0,West,8.1,-,N/A,,Overcast,270,2013-04-11 13:35:00
8:55 AM,32.0,28.6,87,29.69,10.0,West,9.2,-,N/A,,Overcast,270,2013-04-11 13:55:00
9:15 AM,32.0,28.8,88,29.68,10.0,West,9.2,-,N/A,,Overcast,280,2013-04-11 14:15:00
9:35 AM,32.0,28.9,88,29.68,10.0,WNW,11.5,16.1,N/A,,Overcast,290,2013-04-11 14:35:00
9:55 AM,32.2,28.9,88,29.68,10.0,West,12.7,17.3,N/A,,Overcast,270,2013-04-11 14:55:00
10:15 AM,32.4,29.1,88,29.68,10.0,West,9.2,-,N/A,,Overcast,260,2013-04-11 15:15:00
10:35 AM,33.3,29.8,87,29.69,10.0,West,11.5,16.1,N/A,,Overcast,280,2013-04-11 15:35:00
10:55 AM,33.4,29.5,85,29.68,10.0,West,11.5,-,N/A,,Overcast,270,2013-04-11 15:55:00
11:15 AM,33.6,29.5,85,29.68,10.0,West,13.8,18.4,N/A,,Overcast,270,2013-04-11 16:15:00
11:35 AM,33.4,29.3,85,29.68,10.0,West,12.7,16.1,N/A,,Overcast,270,2013-04-11 16:35:00
12:15 PM,33.8,29.8,85,29.67,10.0,West,13.8,19.6,N/A,,Overcast,270,2013-04-11 17:15:00
12:35 PM,33.8,29.8,85,29.67,10.0,West,13.8,18.4,N/A,,Overcast,270,2013-04-11 17:35:00
12:55 PM,33.8,29.8,85,29.67,10.0,West,13.8,20.7,N/A,,Overcast,280,2013-04-11 17:55:00
1:15 PM,33.8,30.0,86,29.67,10.0,WNW,11.5,18.4,N/A,,Overcast,300,2013-04-11 18:15:00
1:35 PM,34.0,30.6,87,29.66,3.0,West,10.4,-,N/A,,Overcast,280,2013-04-11 18:35:00
1:55 PM,34.3,31.1,88,29.66,2.5,West,12.7,20.7,N/A,Snow,Light Snow,270,2013-04-11 18:55:00
2:15 PM,34.7,32.0,90,29.66,1.5,WNW,12.7,-,N/A,Snow,Light Snow,290,2013-04-11 19:15:00
2:35 PM,34.9,32.0,89,29.65,2.5,West,12.7,18.4,N/A,Snow,Light Snow,280,2013-04-11 19:35:00
2:55 PM,34.9,32.0,89,29.65,2.0,West,12.7,-,N/A,Snow,Light Snow,270,2013-04-11 19:55:00
3:15 PM,35.4,32.4,89,29.66,2.5,West,16.1,-,N/A,Snow,Light Snow,270,2013-04-11 20:15:00
3:35 PM,34.9,31.8,89,29.66,1.5,West,12.7,21.9,N/A,Snow,Light Snow,280,2013-04-11 20:35:00
3:55 PM,36.1,33.6,91,29.66,4.0,WNW,10.4,16.1,N/A,Snow,Light Snow,290,2013-04-11 20:55:00
4:15 PM,36.5,32.4,85,29.66,7.0,WNW,16.1,21.9,N/A,,Overcast,300,2013-04-11 21:15:00
4:35 PM,36.3,32.0,84,29.66,4.0,West,13.8,18.4,N/A,Snow,Light Snow,280,2013-04-11 21:35:00
4:55 PM,36.5,32.7,86,29.66,7.0,WNW,13.8,17.3,N/A,Snow,Light Snow,290,2013-04-11 21:55:00
5:15 PM,36.9,33.1,86,29.66,5.0,WNW,10.4,19.6,N/A,Snow,Light Snow,290,2013-04-11 22:15:00
5:35 PM,36.5,33.1,87,29.66,7.0,WNW,12.7,-,N/A,Rain,Light Rain,290,2013-04-11 22:35:00
5:55 PM,36.9,32.0,83,29.66,10.0,WNW,12.7,-,N/A,,Overcast,290,2013-04-11 22:55:00
6:15 PM,36.5,32.0,84,29.66,10.0,WNW,15.0,20.7,N/A,,Overcast,290,2013-04-11 23:15:00
6:35 PM,36.5,31.8,83,29.67,10.0,WNW,11.5,21.9,N/A,,Overcast,290,2013-04-11 23:35:00
6:55 PM,36.5,31.8,83,29.67,10.0,NW,10.4,23.0,N/A,,Overcast,310,2013-04-11 23:55:00
7:15 PM,36.1,31.3,83,29.67,10.0,WNW,17.3,-,N/A,,Overcast,300,2013-04-12 00:15:00
7:35 PM,36.1,30.9,81,29.68,10.0,WNW,17.3,25.3,N/A,,Overcast,300,2013-04-12 00:35:00
7:55 PM,36.0,30.7,81,29.68,10.0,WNW,15.0,26.5,N/A,,Overcast,300,2013-04-12 00:55:00
8:15 PM,35.8,30.9,82,29.69,10.0,WNW,17.3,21.9,N/A,,Overcast,300,2013-04-12 01:15:00
8:35 PM,35.6,30.0,80,29.69,10.0,NW,13.8,23.0,N/A,,Overcast,310,2013-04-12 01:35:00
8:55 PM,35.1,30.0,82,29.70,10.0,WNW,16.1,21.9,N/A,,Overcast,300,2013-04-12 01:55:00
9:15 PM,34.7,29.1,80,29.70,10.0,WNW,17.3,-,N/A,,Overcast,300,2013-04-12 02:15:00
9:35 PM,34.3,29.3,82,29.71,10.0,WNW,11.5,18.4,N/A,,Overcast,300,2013-04-12 02:35:00
9:55 PM,34.2,29.1,82,29.71,10.0,WNW,12.7,16.1,N/A,,Overcast,300,2013-04-12 02:55:00
10:15 PM,34.2,28.9,81,29.72,10.0,WNW,11.5,18.4,N/A,,Overcast,300,2013-04-12 03:15:00
10:35 PM,34.2,28.8,81,29.72,10.0,WNW,16.1,21.9,N/A,,Overcast,300,2013-04-12 03:35:00
10:55 PM,34.2,28.4,79,29.72,10.0,WNW,15.0,23.0,N/A,,Overcast,300,2013-04-12 03:55:00
11:15 PM,34.0,28.4,80,29.72,10.0,WNW,16.1,21.9,N/A,,Overcast,300,2013-04-12 04:15:00
11:35 PM,34.0,28.4,80,29.72,10.0,WNW,13.8,21.9,N/A,,Overcast,300,2013-04-12 04:35:00
11:55 PM,33.8,28.2,80,29.73,10.0,WNW,16.1,21.9,N/A,,Overcast,300,2013-04-12 04:55:00